{"data":{"norad_id":66078,"epoch":"2026-09-20T03:50:57.929280Z","epoch_age_seconds":132345,"freshness":"FRESH","line1":"1 66078U 25235W   26263.16039270  .00009184  00000+0  28251-3 0  9993","line2":"2 66078  53.1591  59.2860 0000911  59.6872 300.4221 15.34410909 52736","mean_motion":15.34410909,"eccentricity":9.11e-5,"inclination_deg":53.1591,"raan_deg":59.286,"arg_perigee_deg":59.6872,"mean_anomaly_deg":300.4221,"bstar":0.00028251,"rev_number":5273,"period_min":93.847090864237,"perigee_km":462.04761896015,"apogee_km":463.29401414433,"semimajor_km":6840.8078165522,"source":"CELESTRAK","updated_at":"2026-09-21T09:00:35.798248Z"}}